Estación municipal de Susqueda - Veïnat del Coll (La Selva, )

Consulta los datos en tiempo real de la estación municipal de Susqueda - Veïnat del Coll





Hora UTC 05:00
Temperatura 9.0 ºC
Humedad 95.7 %
Presión 1013.2 hPa
Pluja 0.0 mm
Velocidad viento 6.6 km/h
Dirección viento SSW
Radiación solar 9.0 W/m²

Datos diarios 2026-05-04



Hora UTC (invierno +1h; verano +2h)
Temperatura (ºC) Humedad (%) Presión (hPa) Velocidad viento (km/h) Precipitación (mm) Radiación solar (W/m²)
Hora UTC Aire Humedad Presión Vel. Dir. Vel. Max Dir. Intent. máx 5 min. Rad. Sol.
00:05 9.4 98.8 1014.5 3.0 W 3.0 WSW 0.0 0.1
00:10 9.3 98.7 1014.5 3.9 WSW 8.8 W 0.0 0.1
00:15 9.2 98.7 1014.5 3.4 SW 10.2 SW 0.0 0.1
00:20 9.2 98.8 1014.5 5.6 S 11.6 SSE 0.0 0.1
00:25 9.3 99.0 1014.3 3.7 SSW 9.9 S 0.0 0.1
00:30 9.3 98.8 1014.3 1.8 WSW 4.9 WNW 0.0 0.1
00:35 9.2 98.7 1014.2 5.7 SSW 13.1 S 0.0 0.1
00:40 9.3 98.9 1014.2 5.4 S 13.4 SSE 0.0 0.1
00:45 9.2 98.7 1014.2 5.2 SSW 11.6 SSW 0.0 0.1
00:50 9.1 98.7 1014.2 5.8 SSW 11.3 SSE 0.0 0.1
00:55 9.0 98.8 1014.1 5.3 SSW 10.9 S 0.0 0.1
01:00 9.0 98.8 1014.1 6.2 SSW 13.4 SSW 0.0 0.1
01:05 9.0 98.8 1014.1 4.2 SW 9.9 WNW 0.0 0.1
01:10 9.0 98.9 1014.1 5.3 WSW 15.5 WNW 0.0 0.1
01:15 8.9 98.8 1014.0 4.4 WSW 14.8 W 0.0 0.1
01:20 8.9 98.9 1014.0 6.3 WSW 14.8 WNW 0.0 0.1
01:25 8.8 98.9 1013.9 5.8 SW 17.3 WSW 0.0 0.1
01:30 8.8 98.9 1013.9 6.4 SW 16.9 WSW 0.0 0.1
01:35 8.8 99.0 1013.9 4.6 SSW 15.9 SW 0.0 0.1
01:40 8.9 99.0 1013.9 4.6 SW 12.4 WSW 0.0 0.1
01:45 8.9 99.0 1013.9 5.8 SW 15.2 W 0.0 0.1
01:50 8.9 99.0 1013.9 6.1 SSW 13.1 SE 0.0 0.1
01:55 9.0 99.0 1013.9 5.0 SSW 14.8 SW 0.0 0.1
02:00 9.0 99.0 1013.9 4.4 SW 11.6 S 0.0 0.1
02:05 9.0 99.0 1013.8 6.2 WSW 18.0 WSW 0.0 0.1
02:10 9.0 99.0 1013.8 7.5 WSW 18.7 W 0.0 0.1
02:15 9.0 99.0 1013.7 6.0 W 18.0 WSW 0.0 0.1
02:20 9.0 99.0 1013.7 4.0 WSW 13.4 WNW 0.0 0.1
02:25 9.0 99.0 1013.7 4.9 WNW 11.3 SSW 0.0 0.1
02:30 9.0 99.0 1013.7 2.0 WNW 5.6 SW 0.0 0.1
02:35 9.0 99.0 1013.7 3.3 SW 12.7 S 0.0 0.1
02:40 8.9 99.0 1013.7 4.3 SW 10.6 SSW 0.0 0.1
02:45 9.0 99.0 1013.8 3.2 SW 10.6 WNW 0.0 0.1
02:50 9.0 99.1 1013.8 2.3 SSW 9.2 WNW 0.0 0.1
02:55 9.0 99.1 1013.8 2.8 SSE 8.1 SE 0.0 0.1
03:00 9.0 99.1 1013.8 4.0 S 10.6 SSE 0.0 0.1
03:05 9.1 99.1 1013.7 3.3 SSE 12.0 S 0.0 0.1
03:10 9.1 99.0 1013.7 1.7 W 7.4 NNW 0.0 0.1
03:15 9.1 98.9 1013.8 4.6 SW 10.9 S 0.0 0.1
03:20 9.1 98.9 1013.8 5.1 S 10.9 S 0.0 0.1
03:25 9.2 99.0 1013.7 7.0 S 13.1 S 0.0 0.1
03:30 9.3 99.0 1013.7 7.0 S 13.8 S 0.0 0.1
03:35 9.3 98.9 1013.8 7.6 S 18.7 SSW 0.0 0.1
03:40 9.3 98.8 1013.8 7.5 S 14.5 SSE 0.0 0.1
03:45 9.3 98.8 1013.7 8.9 S 15.9 S 0.0 0.1
03:50 9.5 98.9 1013.7 10.6 S 19.1 S 0.0 0.1
03:55 10.0 99.0 1013.5 11.2 S 19.4 SSW 0.0 0.1
04:00 10.3 98.2 1013.5 8.6 SSW 16.6 SSW 0.0 0.1
04:05 10.3 96.6 1013.5 7.4 SSW 13.4 SW 0.0 0.1
04:10 9.8 95.9 1013.5 6.9 SW 15.5 SSW 0.0 0.1
04:15 9.5 96.4 1013.5 7.1 SW 14.1 SSW 0.0 0.1
04:20 9.4 96.7 1013.5 7.5 SSW 14.5 SW 0.0 0.1
04:25 9.5 96.8 1013.4 5.1 SSW 13.1 S 0.0 0.1
04:30 9.5 96.3 1013.4 7.1 SSW 16.6 S 0.0 0.4
04:35 9.6 96.2 1013.3 5.9 SSW 12.7 SW 0.0 0.9
04:40 9.5 95.6 1013.3 7.2 SSW 13.8 S 0.0 1.8
04:45 9.4 95.6 1013.3 4.8 SSW 15.5 WSW 0.0 3.3
04:50 9.2 95.6 1013.3 5.9 SW 15.5 SSW 0.0 5.4
04:55 9.1 95.6 1013.2 4.7 SSW 12.7 SSW 0.0 7.0
05:00 9.0 95.7 1013.2 6.6 SSW 14.5 S 0.0 9.0
Máxima 10.3 99.1 1014.5 11.2 S 19.4 SSW 0.0 9.0
Mínima 8.8 95.6 1013.2
Total 0.0